Location: Rochester
(43.1610°N, 77.6109°W)
Time: 10:18:57
(UTC-04:00)

X-37B - Visible Passes

Search period start: 25 September 2022 00:00
Search period end: 05 October 2022 00:00
Orbit: 330 x 340 km, 45.0° (Epoch: 02 September)

Date Brightness Start Highest point End Pass type
(mag) Time Alt. Az. Time Alt. Az. Time Alt. Az.
25 Sep 2.3 05:08:50 23° SE 05:08:50 23° SE 05:10:49 10° E visible
26 Sep 0.6 05:28:31 52° S 05:28:42 54° SSE 05:31:31 10° E visible
27 Sep 0.2 05:48:09 38° W 05:49:07 81° NNW 05:52:00 10° ENE visible
28 Sep 3.7 04:36:32 13° E 04:36:32 13° E 04:36:56 10° E visible
28 Sep 0.6 06:07:45 19° W 06:09:38 58° N 06:12:28 10° ENE visible
29 Sep 2.8 04:56:07 24° ENE 04:56:07 24° ENE 04:57:25 10° ENE visible
29 Sep 0.7 06:27:20 10° WNW 06:30:10 57° N 06:33:00 10° E visible
30 Sep 1.4 05:15:42 43° NE 05:15:42 43° NE 05:17:54 10° ENE visible
01 Oct 0.6 05:35:18 53° NNW 05:35:36 57° N 05:38:26 10° E visible
02 Oct 0.3 05:54:57 32° WNW 05:56:06 78° NNE 05:58:59 10° E visible
03 Oct 3.7 04:43:25 13° E 04:43:25 13° E 04:43:52 10° E visible
03 Oct 0.5 06:14:39 19° W 06:16:32 57° SSW 06:19:22 10° ESE visible
04 Oct 2.8 05:03:12 22° E 05:03:12 22° E 05:04:24 10° E visible
04 Oct 1.7 06:34:27 10° W 06:36:51 26° SSW 06:39:18 10° SSE visible
